[Iaude] MPEC X122: 2019 SH6 [a=2.00,e=0.48,i=8.2,H=20.0]

mpec at marsden.cfa.harvard.edu mpec at marsden.cfa.harvard.edu
Sat Dec 14 10:09:35 EST 2019


M.P.E.C. 2019-X122                            Issued 2019 December 14, 15:08 UT

     The Minor Planet Electronic Circulars contain information on unusual
         minor planets and routine data on comets.  They are published
    on behalf of Division F of the International Astronomical Union by the
          Minor Planet Center, Smithsonian Astrophysical Observatory,
                          Cambridge, MA 02138, U.S.A.

             Prepared using the Tamkin Foundation Computer Network

                              MPC at CFA.HARVARD.EDU
            URL https://www.minorplanetcenter.net/    ISSN 1523-6714

                                    2019 SH6                                    


                           Revision to MPEC 2019-S146                           

Additional Observations:
     K19S06H  C2002 11 17.53360 08 21 21.78 +03 11 12.6          20.0 RVEX122644
     K19S06H  C2002 11 17.55336 08 21 28.22 +03 11 04.8          20.0 RVEX122644
     K19S06H  C2002 11 18.45700 08 26 32.29 +03 05 33.8          20.1 RVEX122644
     K19S06H  C2002 11 18.46748 08 26 35.72 +03 05 30.0          19.9 RVEX122644
     K19S06H  C2002 11 18.47795 08 26 39.16 +03 05 25.9          19.5 RVEX122644
     K19S06H  C2003 04 25.31530013 46 06.052+10 56 14.14         20.85VeEX122645
     K19S06H  C2003 04 25.31877213 46 05.778+10 56 12.77         21.47 eEX122645
     K19S06H KC2019 11 25.33868706 13 12.13 -05 05 02.9          18.4 VuEX122H21
     K19S06H KC2019 11 25.34033906 13 12.46 -05 05 03.3          18.4 VuEX122H21
     K19S06H KC2019 11 25.34177406 13 12.75 -05 05 03.8          18.6 VuEX122H21
     K19S06H KC2019 11 25.34320806 13 13.03 -05 05 04.3          18.4 VuEX122H21
     K19S06H KC2019 11 25.34464306 13 13.31 -05 05 04.6          18.3 VuEX122H21

Observer details:
644 Palomar Mountain/NEAT.  Observers E. F. Helin, S. Pravdo, K. Lawrence, K. 
   Kuluhiwa, M. Hicks, R. Thicksten.  Measurer R. Matson.  1.2-m Schmidt + CCD.
H21 Astronomical Research Observatory, Westfield.  Observer R. Holmes.  
    Measurers S. Foglia, L. Buzzi, T. Linder, R. Holmes.  0.76-m f/3.0 
   astrograph + CCD.

First and last observations above in comparison with prediction:
Residuals in seconds of arc (or two decimals in degrees), reference and Delta-T
021117 644 0.93- 0.15-    191125 H21 0.00- 0.00-    MPO508630   -0.00 days

Orbital elements:
2019 SH6                                                 Earth MOID = 0.0640 AU
Epoch 2020 May 31.0 TT = JDT 2459000.5                  Veres
M  49.59659              (2000.0)            P               Q
n   0.34758339     Peri.    6.65540     -0.40604714     -0.90371046
a   2.0033802      Node   107.37191     +0.83174820     -0.42701128
e   0.4777799      Incl.    8.17849     +0.37857713     -0.03112492
P   2.84           H   20.0           G   0.15           U   0
Residuals in seconds of arc
021117 644  0.2+  0.3+    191103 F51  0.1+  0.0     191125 734  0.5-  0.1+
021117 644  0.4+  0.2-    191104 703 (0.2+  3.3-)   191125 734 (1.6+  0.8-)
021118 644  0.1+  0.1-    191104 703  0.7-  0.1+    191125 H21  0.2+  0.0
021118 644  0.2-  0.1-    191104 703  0.3-  0.5-    191125 H21  0.2+  0.0
021118 644  0.2-  0.4-    191108 H21  0.1-  0.3-    191125 H21  0.3+  0.1-
030425 645  0.1+  0.0     191108 H21  0.1-  0.1+    191125 H21  0.3+  0.1-
030425 645  0.1-  0.1+    191108 H21  0.2-  0.1-    191125 H21  0.2+  0.0
190926 F51  0.1+  0.0     191108 H21  0.1+  0.2-    191125 H21  0.3+  0.1+
190926 F51  0.1+  0.0     191108 H21  0.2-  0.1+    191125 H21  0.2+  0.0
190926 F51  0.1+  0.0     191108 H21  0.3-  0.1+    191125 H21  0.3+  0.1-
190927 F51  0.1+  0.0     191108 H21  0.3-  0.1-    191125 H21  0.4+  0.0
190927 F51  0.1+  0.0     191108 H21  0.1+  0.2-    191125 H21  0.4+  0.1-
190927 F51  0.1+  0.0     191108 H21  0.1-  0.2-    191126 H21  0.3+  0.6+
190928 691  0.0   0.2+    191108 H21  0.1+  0.3-    191126 H21  0.1+  0.2+
190928 691  0.2-  0.4+    191108 H21  0.1+  0.0     191126 H21  0.0   0.4+
190928 691  0.0   0.1+    191108 H21  0.2-  0.1+    191126 H21  0.1+  0.4+
190929 J04  0.3-  0.3-    191108 H21  0.0   0.2+    191126 H21  0.1+  0.2+
190929 J04  0.0   0.0     191108 H21  0.2-  0.3+    191126 H21  0.1+  0.1+
190929 J04  0.2-  0.2+    191108 H21  0.0   0.1-    191126 H21  0.1+  0.3+
190930 291  0.9-  0.3+    191108 H21  0.2+  0.2+    191126 H21  0.0   0.2+
190930 291  0.2-  0.1+    191108 H21  0.0   0.2-    191126 H21  0.1+  0.1+
190930 291  0.0   0.1+    191108 H21  0.2+  0.1+    191126 H21  0.0   0.0
191005 I52  0.4-  0.6+    191108 H21  0.1+  0.1+    191126 H21  0.1-  0.1-
191005 I52  0.2-  0.1-    191108 H21  0.1-  0.0     191126 H21  0.0   0.1-
191005 I52  0.6-  0.3+    191108 H21  0.1-  0.0     191126 H21  0.1+  0.0
191005 I52  0.4-  0.5-    191108 H21  0.1+  0.1-    191126 H21  0.1+  0.1-
191006 807  0.2-  0.6-    191108 H21  0.1+  0.2+    191130 204  0.4+  0.1+
191006 807  0.1+  0.4-    191108 H21  0.0   0.2+    191130 204  0.1-  0.3+
191006 807  0.0   0.6-    191109 703  1.4+  0.4-    191201 H45  0.3-  0.2+
191010 I52  0.2-  0.2+    191109 703 (1.2-  1.6+)   191201 H45  0.2-  0.2+
191010 I52  0.1+  0.1+    191110 F52  0.1+  0.2-    191201 H45  0.1+  0.2+
191010 I52  0.3+  0.0     191110 F52  0.0   0.1+    191201 H45  0.4-  0.2+
191010 I52  0.3+  0.1+    191110 F52  0.0   0.0     191201 H45  0.4+  0.2+
191011 I52  0.0   0.3+    191110 F52  0.0   0.1-    191204 H45  0.4-  0.3-
191011 I52  0.2+  0.6+    191117 H21  0.2-  0.4+    191204 H45  0.4-  0.2+
191011 I52  0.2-  0.2-    191117 H21  0.0   0.2+    191204 H45  0.3-  0.1+
191011 I52  0.1-  0.4+    191117 H21  0.1+  0.1+    191204 H45  0.5-  0.1+
191021 291  0.2-  0.2+    191117 H21  0.3-  0.2+    191204 H45  0.3-  0.1-
191021 291  0.2-  0.2+    191117 H21  0.1-  0.3+    191204 H45  0.6-  0.0
191021 291  0.1-  0.2+    191117 H21  0.0   0.4+    191204 734  0.7+  0.7-
191022 691  0.2-  0.1-    191117 H21  0.3-  0.1+    191204 734  0.1+  0.2-
191022 691  0.1+  0.4+    191117 H21  0.0   0.3+    191204 734  1.1-  1.2+
191022 691  0.7+  0.0     191117 H21  0.0   0.2+    191207 H45  0.2+  0.1+
191026 691  0.8-  0.3-    191117 H21  0.0   0.1+    191207 H45  1.2-  0.1+
191026 691  0.1+  0.6+    191117 H21  0.0   0.3+    191207 H45  0.5-  0.1+
191026 691  0.1-  0.2-    191117 H21  0.0   0.1+    191207 H45  1.1-  0.3+
191027 G96  0.5-  0.3+    191117 807  0.1+  0.1-    191207 H45  0.6-  0.1+
191027 G96  0.1+  0.1-    191117 807  0.1-  0.1-    191207 H45  0.5-  0.3+
191027 G96  0.2-  0.1-    191117 807  0.1-  0.2-    191207 734  0.7+  0.3-
191027 G96  0.1+  0.1-    191118 691  0.0   0.0     191207 734  1.5+  0.1-
191028 H21  0.0   0.2-    191118 691  0.3+  0.0     191207 734  0.5+  0.2+
191028 H21  0.1-  0.1-    191118 691  0.1+  0.1-    191208 H21  0.1+  0.1-
191028 H21  0.0   0.0     191123 G40  0.5+  0.3-    191208 H21  0.1+  0.0
191029 703  1.1-  0.6+    191123 G40  0.3+  0.1-    191208 H21  0.4+  0.4-
191029 703  1.1-  0.4+    191123 G40  0.1+  0.1-    191208 H21  0.1-  0.5-
191029 703  0.3-  0.6-    191123 703  0.4-  0.1-    191208 H21  0.0   0.2-
191029 703  0.7-  0.6-    191123 703  0.1-  0.3-    191208 H21  0.0   0.2-
191030 474  0.0   0.0     191123 703  0.5+  0.5-    191208 H21  0.0   0.1-
191030 474  0.0   0.1-    191124 H36  0.2+  0.0     191210 734  0.1-  0.1-
191101 C95  0.2-  0.4-    191124 H36  0.4+  0.1+    191210 734  0.5+  0.1-
191101 C95  0.3+  0.0     191124 H36  0.3+  0.2+    191210 734  0.5+  0.0
191101 C95  0.3+  0.2+    191124 474  0.2-  0.1-    191210 734  0.5+  0.3-
191103 F51  0.0   0.0     191124 474  0.1-  0.3-    191214 691  0.2-  0.2-
191103 F51  0.0   0.0     191124 474  0.1+  0.2-    191214 691  0.1-  0.2-
191103 F51  0.0   0.1-    191125 734  0.6-  0.4+    191214 691  0.1-  0.2-

Ephemeris:
2019 SH6                 a,e,i = 2.00, 0.48, 8                   q = 1.0462
Date    TT    R. A. (2000) Decl.     Delta      r    Elong.  Phase     V
2019 11 14    05 39 10.3 -03 41 21   0.2930  1.2237   138.2    32.6    19.1
...
2019 11 29    06 26 50.3 -05 17 39   0.2044  1.1478   138.5    34.7    18.3
...
2019 12 07    07 03 38.3 -05 04 07   0.1667  1.1140   137.6    36.6    17.8
...
2019 12 13    07 39 38.7 -03 58 50   0.1436  1.0926   136.1    38.6    17.5
2019 12 14    07 46 28.8 -03 42 02   0.1403  1.0894   135.8    39.0    17.5
2019 12 15    07 53 33.9 -03 23 22   0.1371  1.0862   135.5    39.5    17.4
...
2019 12 21    08 41 12.8 -00 49 49   0.1215  1.0698   132.6    42.6    17.2
...
2019 12 29    09 54 51.3 +04 12 23   0.1120  1.0544   126.9    48.3    17.2
...
2020 01 13    12 00 33.0 +13 41 42   0.1278  1.0470   116.7    57.1    17.7

A. U. Tomatic                (C) Copyright 2019 MPC           M.P.E.C. 2019-X122




More information about the Iaude mailing list